Precipitable_Water
1.28 1.48 1.62 1.64 1.75 1.93 1.91 1.97 1.95 2.01 1.85 1.59 1.54 1.51 1.56 1.47 1.39 1.38 1.52 1.58 1.58 1.55 1.64 1.59 1.65 1.82 1.84 1.77 1.71 1.65 1.59 1.58 1.29 1.42 1.64 1.64 1.66 1.75 1.86 1.98 2.11 2.17 2.18
1.35 1.28 1.27 1.43 1.38 1.43 1.69 1.76 1.74 1.82 1.88 1.90 1.67 1.50 1.48 1.50 1.42 1.38 1.39 1.47 1.54 1.51 1.52 1.56 1.64 1.74 1.72 1.69 1.63 1.50 1.44 1.38 1.34 1.23 1.33 1.39 1.54 1.75 1.82 1.91 2.06 2.12 2.10
1.39 1.35 1.30 1.29 1.31 1.29 1.33 1.54 1.63 1.72 1.69 1.79 1.85 1.75 1.46 1.52 1.51 1.51 1.56 1.62 1.65 1.65 1.65 1.61 1.66 1.66 1.57 1.53 1.48 1.40 1.32 1.35 1.43 1.26 1.23 1.40 1.55 1.69 1.70 1.80 1.89 1.94 2.01
1.42 1.41 1.28 1.33 1.41 1.42 1.40 1.38 1.46 1.57 1.60 1.64 1.65 1.68 1.68 1.67 1.68 1.67 1.60 1.61 1.72 1.82 1.85 1.76 1.69 1.63 1.52 1.42 1.38 1.32 1.33 1.33 1.32 1.31 1.28 1.31 1.38 1.55 1.63 1.60 1.65 1.85 1.84
1.50 1.43 1.44 1.47 1.50 1.51 1.48 1.43 1.45 1.45 1.48 1.60 1.66 1.75 1.84 1.78 1.79 1.74 1.70 1.65 1.74 1.81 1.90 1.94 1.76 1.68 1.57 1.51 1.39 1.36 1.28 1.28 1.31 1.28 1.27 1.33 1.31 1.32 1.33 1.51 1.55 1.70 1.80
1.63 1.56 1.56 1.49 1.53 1.59 1.59 1.58 1.59 1.65 1.61 1.59 1.59 1.77 1.81 1.80 1.86 1.86 1.82 1.77 1.82 1.86 1.85 1.97 1.83 1.68 1.63 1.55 1.57 1.50 1.41 1.31 1.26 1.29 1.29 1.24 1.25 1.33 1.42 1.35 1.35 1.32 1.27
1.64 1.62 1.64 1.65 1.60 1.61 1.57 1.53 1.54 1.62 1.74 1.73 1.75 1.80 1.79 1.83 1.83 1.87 1.88 1.87 1.95 1.92 1.92 1.89 1.83 1.87 1.80 1.64 1.54 1.52 1.47 1.48 1.45 1.44 1.25 1.25 1.24 1.31 1.39 1.33 1.28 1.23 1.23
1.36 1.61 1.68 1.76 1.70 1.71 1.63 1.55 1.56 1.56 1.56 1.61 1.73 1.73 1.74 1.81 1.82 1.83 1.83 1.87 1.98 1.94 1.95 1.92 1.87 1.89 1.85 1.69 1.65 1.59 1.53 1.54 1.49 1.46 1.41 1.40 1.46 1.50 1.55 1.52 1.47 1.41 1.42
1.58 1.65 1.68 1.67 1.63 1.61 1.58 1.57 1.56 1.56 1.60 1.66 1.67 1.73 1.75 1.82 1.88 1.84 1.78 1.79 1.80 1.85 1.90 1.90 1.89 1.90 1.83 1.77 1.71 1.65 1.60 1.56 1.67 1.58 1.55 1.55 1.53 1.50 1.52 1.51 1.38 1.38 1.22
1.51 1.55 1.61 1.64 1.62 1.56 1.56 1.55 1.55 1.57 1.54 1.56 1.60 1.70 1.81 1.84 1.88 1.77 1.80 1.80 1.73 1.82 1.84 1.87 1.84 1.82 1.83 1.76 1.69 1.68 1.55 1.55 1.68 1.72 1.71 1.64 1.63 1.58 1.54 1.50 1.46 1.27 1.22
1.44 1.44 1.44 1.48 1.51 1.60 1.62 1.59 1.55 1.53 1.54 1.55 1.59 1.62 1.65 1.72 1.74 1.74 1.72 1.75 1.73 1.73 1.77 1.78 1.77 1.76 1.77 1.71 1.69 1.70 1.69 1.75 1.73 1.71 1.75 1.81 1.78 1.75 1.70 1.58 1.56 1.47 1.34
1.27 1.22 1.19 1.19 1.20 1.24 1.36 1.46 1.53 1.52 1.49 1.45 1.46 1.50 1.57 1.66 1.70 1.77 1.81 1.82 1.82 1.75 1.69 1.75 1.79 1.73 1.70 1.66 1.65 1.64 1.73 1.76 1.68 1.61 1.69 1.73 1.74 1.71 1.70 1.73 1.75 1.75 1.70
1.04 1.03 1.01 1.05 1.06 1.11 1.10 1.14 1.17 1.26 1.29 1.36 1.38 1.41 1.45 1.57 1.63 1.69 1.75 1.79 1.84 1.78 1.73 1.69 1.76 1.78 1.75 1.74 1.72 1.68 1.65 1.61 1.65 1.64 1.57 1.62 1.72 1.73 1.79 1.79 1.85 1.86 1.84
0.94 0.94 0.96 0.95 0.97 0.99 1.06 1.07 1.01 0.98 0.96 0.98 1.02 1.08 1.15 1.25 1.34 1.43 1.49 1.53 1.57 1.58 1.58 1.61 1.59 1.53 1.53 1.58 1.64 1.70 1.67 1.67 1.60 1.57 1.59 1.67 1.73 1.71 1.64 1.74 1.71 1.72 1.69
0.80 0.83 0.84 0.86 0.88 0.89 0.92 0.97 1.00 1.00 0.96 0.88 0.86 0.90 0.91 0.97 1.07 1.14 1.16 1.15 1.16 1.16 1.23 1.31 1.27 1.23 1.21 1.21 1.25 1.30 1.37 1.43 1.43 1.52 1.56 1.57 1.60 1.64 1.65 1.70 1.72 1.74 1.60
0.76 0.74 0.71 0.70 0.70 0.73 0.71 0.80 0.96 0.96 0.94 0.93 0.93 0.93 0.92 0.94 0.93 0.92 0.95 1.00 1.00 1.01 0.98 0.94 0.94 0.96 0.98 1.02 1.04 1.07 1.14 1.18 1.24 1.26 1.27 1.30 1.31 1.35 1.40 1.47 1.49 1.42 1.43
0.73 0.72 0.71 0.72 0.73 0.74 0.73 0.66 0.66 0.85 0.93 0.96 0.93 0.93 0.94 0.94 0.95 0.92 0.90 0.87 0.81 0.78 0.75 0.75 0.75 0.77 0.77 0.78 0.81 0.83 0.84 0.92 1.02 1.05 1.09 1.15 1.21 1.26 1.30 1.33 1.35 1.32 1.27
0.72 0.74 0.78 0.76 0.75 0.74 0.74 0.73 0.73 0.70 0.66 0.70 0.78 0.81 0.88 0.90 0.89 0.89 0.87 0.83 0.78 0.80 0.72 0.72 0.71 0.72 0.71 0.71 0.73 0.75 0.78 0.81 0.85 0.91 0.94 0.98 1.03 1.06 1.16 1.21 1.28 1.28 1.31
0.68 0.70 0.72 0.72 0.68 0.66 0.67 0.67 0.68 0.67 0.65 0.69 0.79 0.82 0.84 0.86 0.85 0.83 0.80 0.74 0.69 0.70 0.72 0.70 0.73 0.72 0.71 0.71 0.72 0.76 0.77 0.79 0.81 0.81 0.84 0.90 0.95 1.00 1.01 1.05 1.13 1.25 1.29
0.69 0.66 0.64 0.64 0.62 0.60 0.59 0.58 0.59 0.60 0.59 0.58 0.58 0.64 0.71 0.70 0.69 0.73 0.75 0.76 0.73 0.70 0.72 0.71 0.73 0.73 0.75 0.76 0.79 0.79 0.77 0.78 0.80 0.81 0.82 0.85 0.89 0.93 0.96 1.04 1.10 1.10 1.15
0.70 0.69 0.64 0.63 0.59 0.59 0.58 0.56 0.56 0.57 0.58 0.57 0.59 0.63 0.64 0.63 0.62 0.64 0.71 0.74 0.73 0.73 0.74 0.76 0.77 0.77 0.79 0.78 0.80 0.79 0.77 0.77 0.78 0.82 0.84 0.85 0.88 0.88 0.94 1.01 1.08 1.15 1.17
0.74 0.73 0.69 0.65 0.61 0.57 0.56 0.57 0.57 0.57 0.59 0.60 0.62 0.67 0.68 0.67 0.67 0.66 0.67 0.68 0.70 0.71 0.74 0.78 0.81 0.83 0.84 0.83 0.81 0.79 0.77 0.75 0.78 0.78 0.78 0.82 0.88 0.89 0.90 0.95 0.99 1.07 1.15
0.81 0.77 0.74 0.73 0.71 0.68 0.64 0.60 0.52 0.55 0.60 0.63 0.65 0.68 0.70 0.69 0.71 0.72 0.71 0.73 0.74 0.74 0.76 0.76 0.75 0.78 0.87 0.89 0.89 0.87 0.82 0.82 0.85 0.85 0.83 0.85 0.80 0.81 0.87 0.89 0.91 0.95 0.98
0.85 0.83 0.80 0.78 0.77 0.75 0.76 0.76 0.75 0.63 0.62 0.67 0.70 0.71 0.74 0.75 0.76 0.76 0.78 0.78 0.78 0.79 0.80 0.80 0.81 0.81 0.84 0.90 0.95 0.96 0.95 0.95 0.93 0.90 0.90 0.87 0.84 0.82 0.86 0.91 0.93 0.92 0.94
0.85 0.82 0.79 0.77 0.77 0.78 0.78 0.78 0.78 0.78 0.73 0.70 0.70 0.72 0.77 0.80 0.80 0.82 0.85 0.87 0.88 0.87 0.84 0.83 0.85 0.84 0.89 0.91 0.92 0.99 1.01 0.99 0.94 0.91 0.88 0.91 0.90 0.87 0.82 0.86 0.91 0.91 0.91
0.82 0.81 0.80 0.79 0.76 0.75 0.72 0.71 0.73 0.76 0.77 0.77 0.76 0.78 0.79 0.81 0.84 0.87 0.90 0.92 0.93 0.95 0.93 0.89 0.87 0.86 0.88 0.90 0.91 0.91 0.92 0.88 0.93 0.91 0.95 0.85 0.88 0.89 0.85 0.87 0.89 0.89 0.92
Wind_Speed
30 31 34 34 34 33 37 38 38 36 35 35 33 32 32 31 30 28 27 26 26 25 25 25 25 25 24 24 23 22 22 21 21 21 20 20 20 20 19 20 20 20 20
30 31 33 34 36 38 39 38 40 37 41 39 38 36 35 34 33 31 29 28 27 27 26 25 24 23 24 24 23 22 21 20 18 19 18 18 17 17 17 17 16 17 17
28 31 34 34 35 37 38 39 40 40 40 41 41 40 38 37 36 34 33 31 29 28 27 26 25 24 24 23 23 22 21 19 18 17 16 16 16 16 15 15 15 15 17
24 26 28 27 28 30 33 36 39 40 41 42 44 44 43 41 41 38 36 34 32 31 30 28 27 26 25 24 23 22 21 20 19 18 17 17 16 15 15 15 15 15 16
21 23 24 22 23 24 26 28 32 35 39 40 39 42 44 44 42 41 38 37 35 34 33 31 28 27 26 25 23 23 22 21 20 19 18 17 17 16 15 15 15 15 16
19 23 21 19 19 21 22 21 21 23 30 36 37 34 44 47 44 43 41 40 37 36 34 33 33 32 29 27 26 25 23 23 22 21 19 19 18 17 17 16 16 16 16
11 19 18 16 15 14 16 16 16 15 18 22 27 25 25 36 44 41 41 39 40 38 36 35 33 33 32 30 28 27 26 25 24 22 21 20 19 18 17 17 18 18 18
5 14 14 14 11 10 13 13 14 15 17 20 23 21 19 22 32 40 38 36 36 36 35 35 34 34 32 31 29 28 27 26 26 25 24 23 22 20 19 18 18 18 19
4 7 8 8 8 8 9 9 11 12 14 16 18 19 19 17 17 22 29 30 31 33 34 34 34 33 32 32 30 29 29 28 26 26 26 25 24 23 21 20 19 18 18
4 4 4 4 4 5 6 7 7 8 10 11 14 15 17 17 18 21 23 24 23 23 24 27 30 29 29 30 28 27 29 29 28 28 27 27 27 25 24 24 22 21 20
4 4 3 3 3 2 4 5 6 6 5 5 7 9 11 14 16 18 19 21 20 19 20 22 27 31 31 31 32 30 29 29 28 29 29 27 27 26 26 27 26 25 24
2 2 2 2 1 1 1 2 4 5 6 6 6 7 7 8 10 13 16 18 20 20 19 19 23 28 33 36 37 39 33 30 32 33 32 31 30 29 29 29 29 29 29
1 1 1 2 2 1 1 1 2 3 4 5 6 7 8 8 10 12 14 15 16 17 19 19 18 18 20 24 29 32 37 39 34 31 34 36 34 35 33 31 33 33 33
3 3 3 3 3 3 4 3 3 3 3 4 5 6 7 9 10 11 12 13 15 16 17 18 18 18 19 21 22 24 27 29 32 36 39 38 39 39 40 38 38 37 37
4 4 4 5 5 6 5 6 5 5 5 4 4 5 6 6 7 8 10 12 14 16 17 18 19 20 21 21 22 23 24 26 29 31 32 33 34 35 37 38 37 37 38
5 5 5 5 4 4 4 5 5 5 4 5 5 6 6 7 8 9 10 11 13 14 15 16 17 18 19 21 22 24 26 27 29 30 31 33 35 35 35 36 37 38 37
4 4 3 2 2 2 2 3 4 5 5 6 6 7 8 8 9 9 10 11 12 14 15 16 17 18 18 20 21 22 25 27 29 30 31 33 34 35 36 37 36 37 38
3 2 2 3 3 3 4 4 4 5 7 9 9 11 11 12 13 13 14 15 16 16 17 18 18 19 20 21 22 23 24 25 26 27 29 31 32 33 34 35 37 38 38
3 3 4 5 5 5 6 6 7 8 10 10 11 12 13 15 16 17 18 19 19 19 19 19 19 20 21 22 23 23 24 25 27 28 30 31 32 32 34 35 37 37 38
4 5 6 6 7 8 9 10 11 12 13 13 15 16 17 18 19 20 20 20 20 21 21 21 22 22 22 22 22 23 24 24 25 26 28 30 33 35 35 35 36 37 38
7 8 9 10 10 12 13 14 15 16 16 17 17 17 18 19 19 20 21 21 21 22 23 23 24 24 24 24 24 24 24 24 26 27 28 29 30 32 35 37 38 38 38
9 10 11 13 14 16 17 19 19 20 20 20 21 21 20 21 21 21 22 22 23 24 25 26 27 28 27 27 26 26 26 27 27 28 29 30 31 31 31 34 37 39 39
12 13 14 16 17 18 19 20 21 22 23 24 24 24 24 24 25 25 25 26 26 27 27 28 29 30 30 30 29 28 28 28 28 28 29 29 29 31 32 32 33 34 38
15 17 18 19 20 21 21 22 23 23 25 26 27 28 28 29 29 29 29 29 29 29 30 30 30 30 31 31 31 31 30 30 29 29 29 29 29 29 28 28 28 31 33
19 19 20 20 21 22 23 24 25 25 26 27 28 29 30 31 32 32 33 32 32 32 32 32 31 32 32 33 33 32 32 31 31 30 30 29 28 27 27 27 27 28 29
19 20 21 23 24 25 26 27 27 28 28 29 29 30 31 31 32 33 33 34 35 35 34 33 33 32 31 31 32 32 31 31 29 29 27 27 26 25 24 23 24 25 24
Wind_Direction
244 244 236 239 235 235 235 234 235 236 239 238 238 238 239 240 242 243 244 246 249 251 253 255 255 255 255 256 258 260 261 263 266 269 270 271 273 271 271 274 267 258 255
248 244 239 239 240 238 236 237 238 242 240 240 240 240 240 241 242 242 244 247 248 250 252 254 254 254 254 255 256 256 258 260 262 266 270 271 272 270 270 274 265 257 254
252 244 239 241 241 238 237 238 239 238 241 237 240 240 241 241 241 243 244 246 249 250 250 251 252 252 251 253 254 254 254 255 257 263 269 272 273 270 269 270 263 259 254
252 239 231 238 238 237 238 238 239 241 241 241 243 240 243 242 241 242 245 246 248 248 250 252 251 250 250 250 251 250 250 250 254 259 265 268 270 272 268 268 266 259 259
241 224 223 232 233 234 238 237 240 244 242 240 240 242 241 239 239 240 241 244 247 249 250 249 249 248 248 248 248 248 249 249 252 257 261 264 267 268 267 267 264 262 262
225 215 222 230 234 234 231 233 239 243 234 234 238 248 242 238 238 239 241 243 246 249 249 250 248 245 247 247 248 248 248 248 250 254 258 260 263 267 265 264 263 263 265
213 208 215 227 219 219 220 226 232 234 229 229 227 238 241 236 235 235 237 244 247 248 250 248 246 244 245 247 247 247 247 248 250 252 255 258 261 264 265 264 263 263 263
234 220 206 215 226 212 216 228 234 236 233 232 233 236 242 245 238 232 233 243 246 247 245 244 244 244 243 243 245 244 245 247 249 250 253 257 259 262 263 265 264 266 266
132 135 169 185 203 210 218 224 228 230 230 231 232 233 235 240 232 220 226 237 245 246 243 240 241 244 242 241 243 245 246 248 250 251 253 256 258 260 262 263 263 264 266
134 136 138 166 189 204 213 221 222 224 230 234 233 233 234 238 235 234 236 234 236 235 238 237 237 238 237 241 240 246 247 250 251 251 253 254 256 257 257 258 261 263 265
119 123 130 143 162 188 214 218 216 214 218 217 220 232 239 238 234 234 226 230 232 236 243 244 242 239 241 245 244 248 252 251 253 253 254 254 254 255 257 258 259 260 263
124 134 142 138 142 174 180 198 216 222 224 228 238 238 237 233 227 225 228 233 238 246 253 255 253 251 251 251 251 247 252 255 254 253 254 255 257 258 259 259 259 260 262
250 218 231 233 241 247 230 213 207 216 223 231 237 239 239 240 236 237 240 246 249 249 252 258 255 251 256 254 252 250 251 249 255 258 256 256 258 255 259 263 262 262 262
259 258 254 247 253 261 254 250 245 243 241 239 241 244 244 244 244 245 247 250 253 256 260 259 260 260 263 264 261 260 255 254 254 257 257 259 258 257 260 264 261 263 262
267 271 265 261 263 264 259 255 252 254 254 252 254 250 249 248 250 253 258 259 263 266 266 265 270 270 268 269 266 264 265 263 261 261 260 261 262 261 260 259 260 261 259
264 267 266 266 268 269 264 255 246 248 256 262 259 259 258 262 261 266 270 271 272 270 269 272 272 273 274 275 274 272 270 270 269 270 267 266 264 263 262 261 260 260 261
269 272 262 270 285 297 294 273 257 251 257 262 268 271 273 267 268 274 281 281 283 281 278 277 278 280 281 280 279 279 278 276 274 274 272 269 268 266 265 263 262 261 260
269 264 263 281 293 296 301 303 297 284 278 277 279 278 276 275 276 279 281 283 282 283 283 281 282 283 285 285 285 284 284 282 280 278 276 274 273 270 268 265 263 263 262
283 285 286 291 296 299 298 296 294 292 293 291 285 281 280 279 279 280 282 283 283 283 283 283 283 285 287 288 287 287 287 286 285 283 279 277 275 273 270 267 265 263 262
290 295 295 294 293 292 294 296 295 293 291 292 289 287 285 284 282 281 281 280 281 281 281 281 281 283 286 288 288 289 291 290 290 290 288 284 279 274 271 270 267 264 262
295 293 295 295 294 293 293 293 293 294 290 288 286 287 287 285 285 282 279 279 279 279 279 278 279 280 282 285 288 290 292 294 294 293 293 292 289 283 276 271 268 265 264
297 296 297 297 297 296 294 291 289 287 287 285 284 284 283 283 284 284 283 282 282 282 281 280 280 279 280 281 284 287 289 292 295 296 296 294 292 290 286 278 271 266 264
300 298 298 297 297 297 297 296 291 285 284 284 284 282 281 282 282 283 283 282 283 284 284 282 281 280 278 278 280 283 285 289 293 295 297 296 298 296 291 284 277 272 266
300 299 298 297 296 297 296 296 296 292 286 285 284 284 280 280 281 281 282 281 282 282 283 284 283 281 279 277 278 279 282 285 287 290 293 294 297 298 295 291 283 276 271
300 300 300 300 300 299 299 298 296 294 291 289 287 286 283 282 282 282 281 280 280 281 282 283 282 282 280 278 276 276 278 280 283 286 287 290 290 295 295 291 289 284 279
302 302 301 300 299 299 298 297 296 295 294 292 291 289 287 285 283 283 283 282 281 280 279 280 280 280 280 279 278 276 275 277 278 280 282 286 287 288 295 294 295 289 284